Location: Observatoire de Paris
(48.8363°N, 2.3365°E)
Time: 12:57:50
(UTC+01:00)

Nauka - Visible Passes

Search period start: 20 September 2021 00:00
Search period end: 30 September 2021 00:00
Orbit: 419 x 423 km, 51.6° (Epoch: 19 September)

Date Brightness Start Highest point End Pass type
(mag) Time Alt. Az. Time Alt. Az. Time Alt. Az.
20 Sep ? 19:54:01 10° SW 19:57:20 61° SSE 19:59:51 16° ENE visible
20 Sep ? 21:30:56 10° W 21:32:51 29° WNW 21:32:51 29° WNW visible
21 Sep ? 20:43:58 10° W 20:47:19 61° NNW 20:47:52 51° NE visible
22 Sep ? 19:57:00 10° WSW 20:00:22 74° NNW 20:02:48 18° ENE visible
22 Sep ? 21:34:10 10° WNW 21:35:48 25° WNW 21:35:48 25° WNW visible
23 Sep ? 20:47:11 10° W 20:50:29 50° N 20:50:41 49° NNE visible
24 Sep ? 20:00:12 10° W 20:03:31 53° N 20:05:32 21° ENE visible
24 Sep ? 21:37:16 10° WNW 21:38:32 21° WNW 21:38:32 21° WNW visible
25 Sep ? 19:13:12 10° W 19:16:32 60° NNW 19:19:53 10° ENE visible
25 Sep ? 20:50:20 10° WNW 20:53:21 52° NNW 20:53:21 52° NNW visible
26 Sep ? 20:03:22 10° WNW 20:06:42 51° N 20:08:11 28° ENE visible
26 Sep ? 21:40:18 10° WNW 21:41:10 17° WNW 21:41:10 17° WNW visible
27 Sep ? 19:16:23 10° WNW 19:19:42 50° N 19:23:00 10° ENE visible
27 Sep ? 20:53:23 10° WNW 20:55:59 50° WNW 20:55:59 50° WNW visible
28 Sep ? 20:06:27 10° WNW 20:09:49 65° NNE 20:10:49 40° E visible
28 Sep ? 21:43:25 10° WNW 21:43:49 13° W 21:43:49 13° W visible
29 Sep ? 19:19:30 10° WNW 19:22:50 56° N 19:25:41 13° E visible
29 Sep ? 20:56:25 10° WNW 20:58:40 36° W 20:58:40 36° W visible
